| time (UTC) | temp F | wind direction | speed MPH | gust MPH | rain 1hr in | rain 24hr in | rain mn in | humidity % | barometer mb |
| 20260506073514 | 44 | 0 | 0.0 | 4.0 | 0.00 | 0.00 | 0.00 | 55 | 1011.4 |
| 20260506073032 | 44 | 0 | 0.0 | 4.0 | 0.00 | 0.00 | 0.00 | 54 | 1011.4 |
| 20260506072515 | 44 | 74 | 2.0 | 5.0 | 0.00 | 0.00 | 0.00 | 54 | 1011.3 |
| 20260506072014 | 45 | 75 | 2.0 | 5.0 | 0.00 | 0.00 | 0.00 | 52 | 1011.3 |
| 20260506071534 | 45 | 91 | 1.0 | 2.0 | 0.00 | 0.00 | 0.00 | 52 | 1011.3 |
| 20260506071014 | 46 | 137 | 1.0 | 7.0 | 0.00 | 0.00 | 0.00 | 51 | 1011.5 |
| 20260506070516 | 46 | 0 | 1.0 | 7.0 | 0.00 | 0.00 | 0.00 | 51 | 1011.4 |
| 20260506062016 | 46 | 140 | 2.0 | 7.0 | 0.00 | 0.00 | 0.00 | 51 | 1011.3 |
| 20260506061534 | 46 | 203 | 2.0 | 7.0 | 0.00 | 0.00 | 0.00 | 52 | 1011.3 |
| 20260506061014 | 46 | 188 | 0.0 | 5.0 | 0.00 | 0.00 | 0.00 | 51 | 1011.3 |
| 20260506060515 | 46 | 206 | 3.0 | 6.0 | 0.00 | 0.00 | 0.00 | 51 | 1011.3 |
| 20260506051020 | 46 | 252 | 5.0 | 12.0 | 0.00 | 0.00 | 0.00 | 48 | 1010.7 |
| 20260506050513 | 45 | 266 | 5.0 | 12.0 | 0.00 | 0.00 | 0.00 | 47 | 1010.7 |
| 20260506045013 | 45 | 272 | 5.0 | 11.0 | 0.00 | 0.00 | 0.00 | 44 | 1010.4 |
| 20260506044535 | 45 | 290 | 4.0 | 11.0 | 0.00 | 0.00 | 0.00 | 34 | 1010.4 |
| 20260506044012 | 47 | 272 | 5.0 | 15.0 | 0.00 | 0.00 | 0.00 | 47 | 1010.4 |
| 20260506043513 | 48 | 262 | 7.0 | 17.0 | 0.00 | 0.00 | 0.00 | 46 | 1010.1 |
| 20260506043034 | 48 | 218 | 10.0 | 17.0 | 0.00 | 0.00 | 0.00 | 44 | 1009.9 |
| 20260506042515 | 48 | 214 | 8.0 | 15.0 | 0.00 | 0.00 | 0.00 | 42 | 1009.8 |
| 20260506042015 | 48 | 201 | 8.0 | 14.0 | 0.00 | 0.00 | 0.00 | 37 | 1009.6 |
| 20260506041533 | 48 | 196 | 8.0 | 14.0 | 0.00 | 0.00 | 0.00 | 36 | 1009.5 |
| 20260506041013 | 48 | 192 | 5.0 | 8.0 | 0.00 | 0.00 | 0.00 | 25 | 1009.5 |
| 20260506040513 | 49 | 207 | 4.0 | 10.0 | 0.00 | 0.00 | 0.00 | 24 | 1009.4 |
| 20260506040031 | 49 | 203 | 5.0 | 10.0 | 0.00 | 0.00 | 0.00 | 24 | 1009.3 |
| 20260506035518 | 48 | 224 | 6.0 | 10.0 | 0.00 | 0.00 | 0.00 | 24 | 1009.3 |
| 20260506035014 | 48 | 202 | 5.0 | 8.0 | 0.00 | 0.00 | 0.00 | 24 | 1009.2 |
| 20260506034534 | 48 | 193 | 4.0 | 6.0 | 0.00 | 0.00 | 0.00 | 24 | 1009.2 |
| 20260506034015 | 48 | 211 | 4.0 | 8.0 | 0.00 | 0.00 | 0.00 | 24 | 1009.3 |
| 20260506033515 | 48 | 191 | 4.0 | 8.0 | 0.00 | 0.00 | 0.00 | 24 | 1009.0 |
| 20260506033030 | 48 | 207 | 5.0 | 8.0 | 0.00 | 0.00 | 0.00 | 25 | 1009.2 |
| 20260506032514 | 49 | 228 | 4.0 | 6.0 | 0.00 | 0.00 | 0.00 | 25 | 1009.0 |
| 20260506032016 | 49 | 206 | 4.0 | 8.0 | 0.00 | 0.00 | 0.00 | 25 | 1009.0 |
| 20260506031533 | 50 | 203 | 4.0 | 8.0 | 0.00 | 0.00 | 0.00 | 25 | 1009.0 |
| 20260506031017 | 50 | 220 | 6.0 | 9.0 | 0.00 | 0.00 | 0.00 | 25 | 1008.9 |
| 20260506030513 | 50 | 210 | 5.0 | 9.0 | 0.00 | 0.00 | 0.00 | 25 | 1008.8 |
| 20260506030037 | 50 | 206 | 4.0 | 5.0 | 0.00 | 0.00 | 0.00 | 26 | 1008.8 |
| 20260506025513 | 50 | 191 | 3.0 | 6.0 | 0.00 | 0.00 | 0.00 | 26 | 1008.6 |
| 20260506025015 | 50 | 200 | 3.0 | 6.0 | 0.00 | 0.00 | 0.00 | 26 | 1008.5 |
| 20260506024542 | 50 | 207 | 3.0 | 5.0 | 0.00 | 0.00 | 0.00 | 26 | 1008.5 |
| 20260506024013 | 50 | 228 | 3.0 | 5.0 | 0.00 | 0.00 | 0.00 | 26 | 1008.5 |
| 20260506023513 | 50 | 233 | 3.0 | 6.0 | 0.00 | 0.00 | 0.00 | 26 | 1008.4 |
| 20260506023034 | 51 | 240 | 4.0 | 6.0 | 0.00 | 0.00 | 0.00 | 26 | 1008.2 |
| 20260506022515 | 50 | 264 | 4.0 | 5.0 | 0.00 | 0.00 | 0.00 | 27 | 1008.1 |
| 20260506022015 | 51 | 260 | 3.0 | 5.0 | 0.00 | 0.00 | 0.00 | 27 | 1008.0 |
| 20260506021530 | 51 | 255 | 3.0 | 10.0 | 0.00 | 0.00 | 0.00 | 26 | 1007.9 |
| 20260506021013 | 52 | 247 | 4.0 | 10.0 | 0.00 | 0.00 | 0.00 | 25 | 1007.7 |
| 20260506020514 | 53 | 229 | 5.0 | 9.0 | 0.00 | 0.00 | 0.00 | 24 | 1007.6 |
| 20260506020034 | 53 | 237 | 5.0 | 9.0 | 0.00 | 0.00 | 0.00 | 24 | 1007.6 |
| 20260506015513 | 54 | 234 | 5.0 | 10.0 | 0.00 | 0.00 | 0.00 | 23 | 1007.5 |
| 20260506015014 | 54 | 215 | 7.0 | 10.0 | 0.00 | 0.00 | 0.00 | 23 | 1007.5 |
| 20260506014536 | 54 | 241 | 7.0 | 12.0 | 0.00 | 0.00 | 0.00 | 23 | 1007.3 |
| 20260506014012 | 55 | 230 | 7.0 | 14.0 | 0.00 | 0.00 | 0.00 | 22 | 1007.3 |
| 20260506013513 | 56 | 225 | 10.0 | 14.0 | 0.00 | 0.00 | 0.00 | 21 | 1007.2 |
| 20260506013035 | 56 | 238 | 5.0 | 13.0 | 0.00 | 0.00 | 0.00 | 22 | 1007.2 |
| 20260506012513 | 57 | 238 | 7.0 | 13.0 | 0.00 | 0.00 | 0.00 | 22 | 1007.1 |
| 20260506012015 | 57 | 233 | 7.0 | 14.0 | 0.00 | 0.00 | 0.00 | 20 | 1007.0 |
| 20260506011534 | 58 | 238 | 7.0 | 15.0 | 0.00 | 0.00 | 0.00 | 21 | 1007.1 |
| 20260506011014 | 58 | 250 | 10.0 | 18.0 | 0.00 | 0.00 | 0.00 | 20 | 1007.1 |
| 20260506010513 | 58 | 232 | 12.0 | 18.0 | 0.00 | 0.00 | 0.00 | 20 | 1007.1 |
| 20260506010034 | 57 | 229 | 8.0 | 13.0 | 0.00 | 0.00 | 0.00 | 21 | 1007.1 |
| 20260506005512 | 57 | 229 | 5.0 | 12.0 | 0.00 | 0.00 | 0.00 | 21 | 1007.0 |
| 20260506005013 | 57 | 202 | 7.0 | 12.0 | 0.00 | 0.00 | 0.00 | 21 | 1007.2 |
| 20260506004531 | 57 | 203 | 7.0 | 12.0 | 0.00 | 0.00 | 0.00 | 20 | 1007.2 |
| 20260506004013 | 57 | 238 | 7.0 | 12.0 | 0.00 | 0.00 | 0.00 | 21 | 1007.3 |
| 20260506003517 | 58 | 250 | 5.0 | 12.0 | 0.00 | 0.00 | 0.00 | 21 | 1007.2 |
| 20260506003036 | 58 | 226 | 8.0 | 17.0 | 0.00 | 0.00 | 0.00 | 20 | 1007.2 |
| 20260506002513 | 60 | 225 | 7.0 | 18.0 | 0.00 | 0.00 | 0.00 | 20 | 1007.2 |
| 20260506002017 | 59 | 193 | 10.0 | 18.0 | 0.00 | 0.00 | 0.00 | 18 | 1007.3 |
| 20260506001538 | 60 | 252 | 11.0 | 16.0 | 0.00 | 0.00 | 0.00 | 19 | 1007.1 |
| 20260506001013 | 60 | 229 | 8.0 | 19.0 | 0.00 | 0.00 | 0.00 | 19 | 1007.1 |
| 20260506000514 | 60 | 246 | 9.0 | 19.0 | 0.00 | 0.00 | 0.00 | 19 | 1007.1 |
| 20260506000035 | 60 | 204 | 12.0 | 18.0 | 0.00 | 0.00 | 0.00 | 19 | 1007.1 |
| 20260505235513 | 60 | 204 | 10.0 | 18.0 | 0.00 | 0.00 | 0.00 | 18 | 1007.1 |
| 20260505235015 | 60 | 246 | 12.0 | 18.0 | 0.00 | 0.00 | 0.00 | 18 | 1007.1 |
| 20260505234536 | 60 | 213 | 7.0 | 18.0 | 0.00 | 0.00 | 0.00 | 18 | 1007.1 |
| 20260505234013 | 60 | 228 | 11.0 | 18.0 | 0.00 | 0.00 | 0.00 | 17 | 1007.2 |
| 20260505233513 | 61 | 245 | 11.0 | 17.0 | 0.00 | 0.00 | 0.00 | 18 | 1007.2 |
| 20260505233031 | 60 | 248 | 12.0 | 17.0 | 0.00 | 0.00 | 0.00 | 17 | 1007.4 |
| 20260505232515 | 61 | 257 | 10.0 | 19.0 | 0.00 | 0.00 | 0.00 | 17 | 1007.3 |
| 20260505232013 | 61 | 255 | 11.0 | 19.0 | 0.00 | 0.00 | 0.00 | 20 | 1007.5 |
| 20260505231537 | 61 | 220 | 10.0 | 20.0 | 0.00 | 0.00 | 0.00 | 18 | 1007.4 |
| 20260505231013 | 61 | 222 | 13.0 | 20.0 | 0.00 | 0.00 | 0.00 | 17 | 1007.6 |
| 20260505230512 | 60 | 245 | 13.0 | 20.0 | 0.00 | 0.00 | 0.00 | 19 | 1007.7 |
| 20260505230048 | 60 | 212 | 7.0 | 17.0 | 0.00 | 0.00 | 0.00 | 18 | 1007.7 |
| 20260505225516 | 59 | 245 | 11.0 | 17.0 | 0.00 | 0.00 | 0.00 | 17 | 1007.8 |
| 20260505225014 | 60 | 202 | 10.0 | 18.0 | 0.00 | 0.00 | 0.00 | 18 | 1008.0 |
| 20260505224530 | 59 | 214 | 13.0 | 18.0 | 0.00 | 0.00 | 0.00 | 17 | 1008.0 |
| 20260505224011 | 60 | 257 | 11.0 | 18.0 | 0.00 | 0.00 | 0.00 | 17 | 1008.0 |
| 20260505223516 | 60 | 212 | 11.0 | 19.0 | 0.00 | 0.00 | 0.00 | 15 | 1008.1 |
| 20260505223033 | 60 | 219 | 12.0 | 19.0 | 0.00 | 0.00 | 0.00 | 14 | 1008.2 |
| 20260505222513 | 59 | 229 | 9.0 | 19.0 | 0.00 | 0.00 | 0.00 | 18 | 1008.2 |
| 20260505222013 | 59 | 226 | 14.0 | 19.0 | 0.00 | 0.00 | 0.00 | 18 | 1008.3 |
| 20260505221532 | 59 | 252 | 11.0 | 20.0 | 0.00 | 0.00 | 0.00 | 18 | 1008.2 |
| 20260505221019 | 59 | 236 | 13.0 | 20.0 | 0.00 | 0.00 | 0.00 | 19 | 1008.4 |
| 20260505220512 | 59 | 227 | 13.0 | 20.0 | 0.00 | 0.00 | 0.00 | 20 | 1008.4 |
| 20260505220033 | 58 | 248 | 10.0 | 19.0 | 0.00 | 0.00 | 0.00 | 20 | 1008.5 |
| 20260505215514 | 58 | 266 | 13.0 | 19.0 | 0.00 | 0.00 | 0.00 | 20 | 1008.6 |
| 20260505215011 | 59 | 235 | 12.0 | 24.0 | 0.00 | 0.00 | 0.00 | 18 | 1008.7 |
| 20260505214530 | 58 | 224 | 14.0 | 25.0 | 0.00 | 0.00 | 0.00 | 18 | 1008.8 |
| 20260505214017 | 58 | 250 | 12.0 | 25.0 | 0.00 | 0.00 | 0.00 | 21 | 1008.8 |
| 20260505213514 | 58 | 229 | 17.0 | 25.0 | 0.00 | 0.00 | 0.00 | 20 | 1009.0 |
| 20260505213032 | 58 | 229 | 13.0 | 23.0 | 0.00 | 0.00 | 0.00 | 20 | 1008.9 |
| 20260505212513 | 58 | 217 | 14.0 | 23.0 | 0.00 | 0.00 | 0.00 | 21 | 1008.9 |
| 20260505212015 | 59 | 250 | 13.0 | 23.0 | 0.00 | 0.00 | 0.00 | 21 | 1008.9 |
| 20260505211534 | 59 | 226 | 14.0 | 22.0 | 0.00 | 0.00 | 0.00 | 18 | 1008.8 |
| 20260505211015 | 60 | 264 | 14.0 | 26.0 | 0.00 | 0.00 | 0.00 | 19 | 1008.9 |
| 20260505210513 | 60 | 230 | 18.0 | 26.0 | 0.00 | 0.00 | 0.00 | 17 | 1009.0 |
| 20260505210034 | 59 | 217 | 13.0 | 30.0 | 0.00 | 0.00 | 0.00 | 20 | 1009.0 |
| 20260505205517 | 59 | 246 | 17.0 | 30.0 | 0.00 | 0.00 | 0.00 | 18 | 1009.0 |
| 20260505205019 | 61 | 257 | 20.0 | 30.0 | 0.00 | 0.00 | 0.00 | 15 | 1009.1 |
| 20260505204532 | 60 | 252 | 8.0 | 28.0 | 0.00 | 0.00 | 0.00 | 19 | 1009.0 |
| 20260505204013 | 60 | 232 | 15.0 | 28.0 | 0.00 | 0.00 | 0.00 | 19 | 1009.2 |
| 20260505203512 | 60 | 235 | 15.0 | 24.0 | 0.00 | 0.00 | 0.00 | 17 | 1009.1 |
| 20260505203031 | 60 | 194 | 15.0 | 25.0 | 0.00 | 0.00 | 0.00 | 18 | 1009.2 |
| 20260505202513 | 60 | 256 | 16.0 | 25.0 | 0.00 | 0.00 | 0.00 | 18 | 1009.3 |
| 20260505202017 | 61 | 264 | 17.0 | 24.0 | 0.00 | 0.00 | 0.00 | 18 | 1009.3 |
| 20260505201530 | 60 | 233 | 16.0 | 23.0 | 0.00 | 0.00 | 0.00 | 19 | 1009.3 |
| 20260505201015 | 60 | 253 | 16.0 | 25.0 | 0.00 | 0.00 | 0.00 | 16 | 1009.3 |
| 20260505200514 | 59 | 224 | 12.0 | 25.0 | 0.00 | 0.00 | 0.00 | 19 | 1009.3 |
| 20260505200030 | 58 | 185 | 12.0 | 23.0 | 0.00 | 0.00 | 0.00 | 19 | 1009.5 |
| 20260505195513 | 58 | 221 | 15.0 | 23.0 | 0.00 | 0.00 | 0.00 | 18 | 1009.6 |
| 20260505195015 | 57 | 214 | 15.0 | 21.0 | 0.00 | 0.00 | 0.00 | 20 | 1009.6 |
| 20260505194532 | 58 | 239 | 12.0 | 21.0 | 0.00 | 0.00 | 0.00 | 21 | 1009.5 |
| 20260505194015 | 58 | 224 | 13.0 | 26.0 | 0.00 | 0.00 | 0.00 | 21 | 1009.4 |
| 20260505193512 | 57 | 252 | 16.0 | 26.0 | 0.00 | 0.00 | 0.00 | 21 | 1009.4 |
| 20260505193032 | 58 | 204 | 15.0 | 23.0 | 0.00 | 0.00 | 0.00 | 21 | 1009.4 |
| 20260505192519 | 58 | 189 | 15.0 | 29.0 | 0.00 | 0.00 | 0.00 | 20 | 1009.3 |
| 20260505192016 | 58 | 260 | 13.0 | 29.0 | 0.00 | 0.00 | 0.00 | 22 | 1009.3 |
| 20260505191534 | 58 | 237 | 18.0 | 29.0 | 0.00 | 0.00 | 0.00 | 22 | 1009.3 |
| 20260505191015 | 59 | 265 | 10.0 | 22.0 | 0.00 | 0.00 | 0.00 | 20 | 1009.3 |
| 20260505190515 | 58 | 221 | 16.0 | 22.0 | 0.00 | 0.00 | 0.00 | 22 | 1009.4 |
| 20260505190031 | 59 | 243 | 14.0 | 20.0 | 0.00 | 0.00 | 0.00 | 23 | 1009.3 |
| 20260505185513 | 59 | 248 | 12.0 | 19.0 | 0.00 | 0.00 | 0.00 | 22 | 1009.4 |
| 20260505185013 | 59 | 229 | 13.0 | 19.0 | 0.00 | 0.00 | 0.00 | 22 | 1009.4 |
| 20260505184532 | 58 | 216 | 12.0 | 20.0 | 0.00 | 0.00 | 0.00 | 23 | 1009.4 |
| 20260505184013 | 58 | 241 | 14.0 | 20.0 | 0.00 | 0.00 | 0.00 | 23 | 1009.6 |
| 20260505183515 | 58 | 230 | 11.0 | 20.0 | 0.00 | 0.00 | 0.00 | 23 | 1009.5 |
| 20260505183036 | 58 | 244 | 12.0 | 23.0 | 0.00 | 0.00 | 0.00 | 24 | 1009.4 |
| 20260505182512 | 57 | 265 | 14.0 | 23.0 | 0.00 | 0.00 | 0.00 | 23 | 1009.5 |
| 20260505182017 | 57 | 264 | 10.0 | 25.0 | 0.00 | 0.00 | 0.00 | 24 | 1009.4 |
| 20260505181531 | 58 | 238 | 13.0 | 25.0 | 0.00 | 0.00 | 0.00 | 23 | 1009.6 |
| 20260505181013 | 58 | 257 | 16.0 | 25.0 | 0.00 | 0.00 | 0.00 | 22 | 1009.5 |
| 20260505180513 | 58 | 236 | 13.0 | 23.0 | 0.00 | 0.00 | 0.00 | 21 | 1009.6 |
| 20260505180044 | 58 | 226 | 15.0 | 29.0 | 0.00 | 0.00 | 0.00 | 21 | 1009.8 |
| 20260505175511 | 58 | 242 | 14.0 | 29.0 | 0.00 | 0.00 | 0.00 | 22 | 1009.8 |
| 20260505175011 | 57 | 264 | 12.0 | 22.0 | 0.00 | 0.00 | 0.00 | 25 | 1009.9 |
| 20260505174538 | 58 | 255 | 15.0 | 22.0 | 0.00 | 0.00 | 0.00 | 25 | 1009.9 |
| 20260505174014 | 57 | 232 | 9.0 | 23.0 | 0.00 | 0.00 | 0.00 | 27 | 1009.9 |
| 20260505173512 | 57 | 205 | 12.0 | 23.0 | 0.00 | 0.00 | 0.00 | 25 | 1010.0 |
| 20260505173032 | 57 | 231 | 14.0 | 22.0 | 0.00 | 0.00 | 0.00 | 26 | 1009.9 |
| 20260505172515 | 58 | 233 | 13.0 | 22.0 | 0.00 | 0.00 | 0.00 | 28 | 1010.0 |
| 20260505172017 | 58 | 214 | 15.0 | 23.0 | 0.00 | 0.00 | 0.00 | 26 | 1010.1 |
| 20260505171533 | 57 | 257 | 14.0 | 23.0 | 0.00 | 0.00 | 0.00 | 28 | 1010.0 |
| 20260505171016 | 57 | 208 | 12.0 | 23.0 | 0.00 | 0.00 | 0.00 | 27 | 1010.0 |
| 20260505170512 | 57 | 240 | 10.0 | 21.0 | 0.00 | 0.00 | 0.00 | 27 | 1010.1 |
| 20260505170030 | 56 | 212 | 14.0 | 21.0 | 0.00 | 0.00 | 0.00 | 26 | 1010.0 |
| 20260505165510 | 56 | 249 | 11.0 | 19.0 | 0.00 | 0.00 | 0.00 | 29 | 1010.0 |
| 20260505165014 | 56 | 238 | 6.0 | 20.0 | 0.00 | 0.00 | 0.00 | 28 | 1010.0 |
| 20260505164535 | 56 | 266 | 13.0 | 20.0 | 0.00 | 0.00 | 0.00 | 29 | 1010.1 |
| 20260505164017 | 55 | 232 | 8.0 | 17.0 | 0.00 | 0.00 | 0.00 | 31 | 1010.1 |
| 20260505163518 | 55 | 257 | 11.0 | 17.0 | 0.00 | 0.00 | 0.00 | 32 | 1010.2 |
| 20260505163034 | 55 | 231 | 9.0 | 17.0 | 0.00 | 0.00 | 0.00 | 33 | 1010.3 |
| 20260505162513 | 55 | 224 | 8.0 | 18.0 | 0.00 | 0.00 | 0.00 | 33 | 1010.3 |
| 20260505162016 | 54 | 242 | 6.0 | 18.0 | 0.00 | 0.00 | 0.00 | 32 | 1010.2 |
| 20260505161530 | 54 | 227 | 10.0 | 15.0 | 0.00 | 0.00 | 0.00 | 33 | 1010.2 |
| 20260505161013 | 54 | 220 | 11.0 | 17.0 | 0.00 | 0.00 | 0.00 | 32 | 1010.3 |
| 20260505160514 | 54 | 250 | 9.0 | 17.0 | 0.00 | 0.00 | 0.00 | 33 | 1010.3 |
| 20260505153033 | 53 | 215 | 11.0 | 16.0 | 0.00 | 0.00 | 0.00 | 31 | 1010.4 |
| 20260505152518 | 53 | 213 | 10.0 | 19.0 | 0.00 | 0.00 | 0.00 | 32 | 1010.6 |
| 20260505152014 | 52 | 215 | 10.0 | 19.0 | 0.00 | 0.00 | 0.00 | 32 | 1010.8 |
| 20260505151531 | 52 | 214 | 12.0 | 18.0 | 0.00 | 0.00 | 0.00 | 32 | 1010.9 |
| 20260505151013 | 52 | 263 | 11.0 | 18.0 | 0.00 | 0.00 | 0.00 | 33 | 1011.0 |
| 20260505150514 | 52 | 238 | 12.0 | 17.0 | 0.00 | 0.00 | 0.00 | 33 | 1011.1 |
| 20260505140514 | 50 | 162 | 9.0 | 15.0 | 0.00 | 0.00 | 0.00 | 35 | 1011.8 |
| 20260505125013 | 46 | 207 | 8.0 | 13.0 | 0.00 | 0.00 | 0.00 | 38 | 1011.7 |
| 20260505124532 | 45 | 182 | 6.0 | 11.0 | 0.00 | 0.00 | 0.00 | 39 | 1011.7 |
| 20260505124013 | 45 | 167 | 5.0 | 10.0 | 0.00 | 0.00 | 0.00 | 39 | 1011.7 |
| 20260505123513 | 44 | 147 | 5.0 | 11.0 | 0.00 | 0.00 | 0.00 | 39 | 1011.7 |
| 20260505123035 | 44 | 186 | 6.0 | 11.0 | 0.00 | 0.00 | 0.00 | 39 | 1011.7 |
| 20260505122513 | 44 | 174 | 1.0 | 8.0 | 0.00 | 0.00 | 0.00 | 39 | 1011.7 |
| 20260505122011 | 45 | 189 | 2.0 | 8.0 | 0.00 | 0.00 | 0.00 | 38 | 1011.7 |
| 20260505121531 | 45 | 187 | 5.0 | 8.0 | 0.00 | 0.00 | 0.00 | 38 | 1011.7 |
| 20260505121010 | 45 | 167 | 4.0 | 7.0 | 0.00 | 0.00 | 0.00 | 38 | 1011.7 |
| 20260505120514 | 45 | 153 | 3.0 | 8.0 | 0.00 | 0.00 | 0.00 | 37 | 1011.8 |
| 20260505120031 | 45 | 153 | 4.0 | 8.0 | 0.00 | 0.00 | 0.00 | 37 | 1011.8 |
| 20260505115513 | 45 | 153 | 3.0 | 7.0 | 0.00 | 0.00 | 0.00 | 37 | 1011.7 |
| 20260505115010 | 45 | 189 | 4.0 | 7.0 | 0.00 | 0.00 | 0.00 | 37 | 1011.7 |
| 20260505114530 | 46 | 156 | 4.0 | 7.0 | 0.00 | 0.00 | 0.00 | 37 | 1011.6 |
| 20260505114011 | 46 | 165 | 1.0 | 4.0 | 0.00 | 0.00 | 0.00 | 36 | 1011.6 |
| 20260505113517 | 46 | 0 | 1.0 | 4.0 | 0.00 | 0.00 | 0.00 | 36 | 1011.5 |
| 20260505113034 | 47 | 0 | 0.0 | 5.0 | 0.00 | 0.00 | 0.00 | 36 | 1011.4 |
| 20260505112514 | 47 | 192 | 1.0 | 8.0 | 0.00 | 0.00 | 0.00 | 35 | 1011.3 |
| 20260505112013 | 47 | 178 | 3.0 | 8.0 | 0.00 | 0.00 | 0.00 | 35 | 1011.4 |
| 20260505111532 | 48 | 176 | 1.0 | 8.0 | 0.00 | 0.00 | 0.00 | 35 | 1011.3 |
| 20260505111014 | 48 | 164 | 0.0 | 7.0 | 0.00 | 0.00 | 0.00 | 34 | 1011.3 |
| 20260505110514 | 48 | 162 | 4.0 | 8.0 | 0.00 | 0.00 | 0.00 | 34 | 1011.3 |
| 20260505102015 | 49 | 191 | 10.0 | 15.0 | 0.00 | 0.00 | 0.00 | 32 | 1011.2 |
| 20260505101548 | 50 | 183 | 10.0 | 15.0 | 0.00 | 0.00 | 0.00 | 31 | 1011.1 |
| 20260505101013 | 50 | 212 | 10.0 | 15.0 | 0.00 | 0.00 | 0.00 | 31 | 1011.1 |
| 20260505100512 | 50 | 204 | 9.0 | 18.0 | 0.00 | 0.00 | 0.00 | 31 | 1011.1 |
| 20260505100054 | 50 | 200 | 10.0 | 18.0 | 0.00 | 0.00 | 0.00 | 31 | 1011.1 |
| 20260505095513 | 50 | 207 | 8.0 | 13.0 | 0.00 | 0.04 | 0.00 | 31 | 1011.0 |
| 20260505095013 | 50 | 176 | 8.0 | 14.0 | 0.00 | 0.04 | 0.00 | 32 | 1011.1 |
| 20260505094532 | 50 | 180 | 11.0 | 14.0 | 0.00 | 0.04 | 0.00 | 31 | 1010.9 |
| 20260505094010 | 50 | 169 | 8.0 | 14.0 | 0.00 | 0.04 | 0.00 | 31 | 1010.8 |
| 20260505093512 | 50 | 195 | 8.0 | 15.0 | 0.00 | 0.04 | 0.00 | 32 | 1010.8 |
| 20260505093031 | 50 | 200 | 8.0 | 15.0 | 0.00 | 0.04 | 0.00 | 32 | 1010.8 |
| 20260505092529 | 50 | 166 | 7.0 | 15.0 | 0.00 | 0.04 | 0.00 | 32 | 1010.8 |
| 20260505092015 | 50 | 175 | 8.0 | 14.0 | 0.00 | 0.04 | 0.00 | 32 | 1010.8 |
| 20260505091530 | 50 | 213 | 8.0 | 13.0 | 0.00 | 0.04 | 0.00 | 32 | 1010.8 |
| 20260505091013 | 50 | 168 | 7.0 | 13.0 | 0.00 | 0.04 | 0.00 | 32 | 1010.7 |
| 20260505090514 | 50 | 167 | 8.0 | 15.0 | 0.00 | 0.04 | 0.00 | 31 | 1010.7 |
| 20260505090030 | 50 | 195 | 10.0 | 20.0 | 0.00 | 0.04 | 0.00 | 31 | 1010.7 |
| 20260505085517 | 51 | 197 | 13.0 | 20.0 | 0.00 | 0.04 | 0.00 | 31 | 1010.7 |
| 20260505085014 | 50 | 189 | 8.0 | 13.0 | 0.00 | 0.04 | 0.00 | 33 | 1010.9 |
| 20260505084532 | 50 | 172 | 7.0 | 11.0 | 0.00 | 0.04 | 0.00 | 34 | 1010.9 |
| 20260505084016 | 50 | 169 | 6.0 | 13.0 | 0.00 | 0.04 | 0.00 | 34 | 1010.8 |
| 20260505083515 | 51 | 198 | 7.0 | 18.0 | 0.00 | 0.04 | 0.00 | 34 | 1010.9 |
| 20260505083035 | 51 | 191 | 9.0 | 18.0 | 0.00 | 0.04 | 0.00 | 34 | 1010.9 |
| 20260505082515 | 51 | 203 | 9.0 | 16.0 | 0.00 | 0.04 | 0.00 | 34 | 1010.9 |
| 20260505082014 | 51 | 189 | 7.0 | 14.0 | 0.00 | 0.04 | 0.00 | 35 | 1011.0 |
| 20260505081532 | 51 | 202 | 7.0 | 15.0 | 0.00 | 0.04 | 0.00 | 35 | 1011.1 |
| 20260505081013 | 51 | 153 | 6.0 | 15.0 | 0.00 | 0.04 | 0.00 | 35 | 1011.1 |
| 20260505080512 | 51 | 157 | 6.0 | 13.0 | 0.00 | 0.04 | 0.00 | 35 | 1011.1 |